This is the latest recevied weather packets stored in our database for station/object DL9GRB-13. If no packets are shown the sender has not sent any weather packets the latest 10 day(s).
| Time | Temp. | Humidity | Pressure | Rain* | Wind** | Luminosity | Snow |
|---|---|---|---|---|---|---|---|
| 1777222925 | 11.67° C | 35% | 1023.4 hPa | 0 mm | - | 71 W/m² | - |
| 1777222745 | 11.67° C | 35% | 1023.2 hPa | 0 mm | - | 78 W/m² | - |
| 1777222565 | 11.67° C | 34% | 1023.3 hPa | 0 mm | - | 75 W/m² | - |
| 1777222385 | 11.67° C | 32% | 1023.3 hPa | 0 mm | - | 95 W/m² | - |
| 1777222205 | 11.67° C | 32% | 1023.2 hPa | 0 mm | - | 91 W/m² | - |
| 1777222025 | 11.67° C | 33% | 1023.2 hPa | 0 mm | - | 99 W/m² | - |
| 1777221845 | 11.11° C | 33% | 1023.3 hPa | 0 mm | - | 91 W/m² | - |
| 1777221665 | 11.11° C | 33% | 1023.3 hPa | 0 mm | - | 81 W/m² | - |
| 1777221485 | 11.11° C | 33% | 1023.4 hPa | 0 mm | - | 66 W/m² | - |
| 1777221305 | 11.11° C | 33% | 1023.5 hPa | 0 mm | - | 62 W/m² | - |
| 1777221125 | 11.67° C | 33% | 1023.4 hPa | 0 mm | - | 66 W/m² | - |
| 1777220945 | 11.67° C | 34% | 1023.5 hPa | 0 mm | - | 73 W/m² | - |
| 1777220765 | 11.67° C | 34% | 1023.7 hPa | 0 mm | - | 90 W/m² | - |
| 1777220585 | 11.67° C | 34% | 1023.6 hPa | 0 mm | - | 84 W/m² | - |
| 1777220405 | 11.67° C | 35% | 1023.6 hPa | 0 mm | - | 85 W/m² | - |
| 1777220225 | 11.67° C | 32% | 1023.5 hPa | 0 mm | - | 93 W/m² | - |
| 1777220045 | 11.67° C | 34% | 1023.7 hPa | 0 mm | - | 102 W/m² | - |
| 1777219865 | 11.67° C | 34% | 1023.6 hPa | 0 mm | - | 104 W/m² | - |
| 1777219685 | 11.67° C | 33% | 1023.7 hPa | 0 mm | - | 112 W/m² | - |
| 1777219505 | 11.67° C | 33% | 1023.6 hPa | 0 mm | - | 120 W/m² | - |
| 1777219325 | 11.67° C | 33% | 1023.7 hPa | 0 mm | - | 123 W/m² | - |
| 1777219145 | 11.67° C | 33% | 1023.6 hPa | 0 mm | - | 122 W/m² | - |
| 1777218965 | 11.67° C | 33% | 1023.8 hPa | 0 mm | - | 127 W/m² | - |
| 1777218785 | 11.67° C | 33% | 1023.9 hPa | 0 mm | - | 134 W/m² | - |
| 1777218605 | 12.22° C | 32% | 1023.8 hPa | 0 mm | - | 134 W/m² | - |
* Rain latest hour (hover to see other rain measurements)
** Current wind speed in m/s (hover to see current wind gust speed)